Probability
0 0 0 0 0 0 0 0 0 0 0 0 0 0 0 0 0 0 0 0 0 0 0 0 0 0 0 0 0 0 0 0 0 0 0 0 0 0 0 0 0 0 0 0 0 0 0 0 0
0 0 0 0 0 0 0 0 0 0 0 0 0 0 0 0 0 0 0 0 0 0 0 0 0 0 0 0 0 0 0 0 0 0 0 0 0 0 0 0 0 0 0 0 0 0 0 0 0
0 0 0 0 0 0 0 0 0 0 0 0 0 0 0 0 0 0 0 0 0 0 0 0 0 0 0 0 0 0 0 0 0 0 0 0 0 0 0 0 0 0 0 0 0 0 0 0 0
0 0 0 0 0 0 0 0 0 0 0 0 0 0 0 0 0 0 0 0 0 0 0 0 0 0 0 0 0 0 0 0 0 0 0 0 0 0 0 0 0 0 0 0 0 0 0 0 0
0 0 0 0 0 0 0 0 0 0 0 0 0 0 0 0 0 0 0 0 0 0 0 0 0 0 0 0 0 0 0 0 0 0 0 0 0 0 0 0 0 0 0 0 0 0 0 0 0
0 0 0 0 0 0 0 0 0 0 0 0 0 0 0 0 0 0 0 0 0 0 0 0 0 0 0 0 0 0 0 0 0 0 0 0 0 0 0 0 0 0 0 0 0 0 0 0 0
0 0 0 0 0 0 0 0 0 0 0 0 0 0 0 0 0 0 0 0 0 0 0 0 0 0 0 0 0 0 0 0 0 0 0 0 0 0 0 0 0 0 0 0 0 0 0 0 0
0 0 0 0 0 0 0 0 0 0 0 0 0 0 0 0 0 0 0 0 0 0 0 0 0 0 0 0 0 0 0 0 0 0 0 0 0 0 0 0 0 0 0 0 0 0 0 0 0
0 0 0 0 0 0 0 0 0 0 0 0 0 0 0 0 0 0 0 0 0 0 0 0 0 0 0 0 0 0 0 0 0 0 0 0 0 0 0 0 0 0 0 0 0 0 0 0 0
0 0 0 0 0 0 0 0 0 0 0 0 0 0 0 0 0 0 0 0 0 0 0 0 0 0 0 0 0 0 0 0 0 0 0 0 0 0 0 0 0 0 0 0 0 0 0 0 0
0 0 0 0 0 0 0 0 0 0 0 0 0 0 0 0 0 0 0 0 0 0 0 0 0 0 0 0 0 0 0 0 0 0 0 0 0 0 0 0 0 0 0 0 0 0 0 0 0
0 0 0 0 0 0 0 0 0 0 0 0 0 0 0 0 0 0 0 0 0 0 0 0 0 0 0 0 0 0 0 0 0 0 0 0 0 0 0 0 0 0 0 0 0 0 0 0 0
0 0 0 0 0 0 0 0 0 0 0 0 0 0 0 0 0 0 0 0 0 0 0 0 0 0 0 0 0 0 0 0 0 0 0 0 0 0 0 0 0 0 0 0 0 0 0 0 0
0 0 0 0 0 0 0 0 0 0 0 0 0 0 0 0 0 0 0 0 0 0 0 0 0 0 0 0 0 0 0 0 0 0 0 0 0 0 0 0 0 0 0 0 0 0 0 0 0
0 0 0 0 0 0 0 0 0 0 0 0 0 0 0 0 0 0 0 0 0 0 0 0 0 0 0 0 0 0 0 0 0 0 0 0 0 0 0 0 0 0 0 0 0 0 0 0 0
0 0 0 0 0 0 0 0 0 0 0 0 0 0 0 0 0 0 0 0 0 0 0 0 0 0 0 0 0 0 0 0 0 0 0 0 0 0 0 0 0 0 0 0 0 0 0 0 0
0 0 0 0 0 0 0 0 0 0 0 0 0 0 0 0 0 0 0 0 0 0 0 0 0 0 0 0 0 0 0 0 0 0 0 0 0 0 0 0 0 0 0 0 0 0 0 0 0
0 0 0 0 0 0 0 0 0 0 0 0 0 0 0 0 0 0 0 0 0 0 0 0 0 0 0 0 0 0 0 0 0 0 0 0 0 0 0 0 0 0 0 0 0 0 0 0 0
0 0 0 0 0 0 0 0 0 0 0 0 0 0 0 0 0 0 0 0 0 0 0 0 0 0 0 0 0 0 0 0 0 0 0 0 0 0 0 0 0 0 0 0 0 0 0 0 0
0 0 0 0 0 0 0 0 0 0 0 0 0 0 0 0 0 0 0 0 0 0 0 0 0 0 0 0 0 0 0 0 0 0 0 0 0 0 0 0 0 0 0 0 0 0 0 0 0
0 0 0 0 0 0 0 0 0 0 0 0 0 0 0 0 0 0 0 0 0 0 0 0 0 0 0 0 0 0 0 0 0 0 0 0 0 0 0 0 0 0 0 0 0 0 0 0 0
0 0 0 0 0 0 0 0 0 0 0 0 0 0 0 0 0 0 0 0 0 0 0 0 0 0 0 0 0 0 0 0 0 0 0 0 0 0 0 0 0 0 0 0 0 0 0 0 0
0 0 0 0 0 0 0 0 0 0 0 0 0 0 0 0 0 0 0 0 0 0 0 0 0 0 0 0 0 0 0 0 0 0 0 0 0 0 0 0 0 0 0 0 0 0 0 0 0
0 0 0 0 0 0 0 0 0 0 0 0 0 0 0 0 0 0 0 0 0 0 0 0 0 0 0 0 0 0 0 0 0 0 0 0 0 0 0 0 0 0 0 0 0 0 0 0 0
0 0 0 0 0 0 0 0 0 0 0 0 0 0 0 0 0 0 0 0 0 0 0 0 0 0 0 0 0 0 0 0 0 0 0 0 0 0 0 0 0 0 0 0 0 0 0 0 0
0 0 0 0 0 0 0 0 0 0 0 0 0 0 0 0 0 0 0 0 0 0 0 0 0 0 0 0 0 0 0 0 0 0 0 0 0 0 0 0 0 0 0 0 0 0 0 0 0
0 0 0 0 0 0 0 0 0 0 0 0 0 0 0 0 0 0 0 0 0 0 0 0 0 0 0 0 0 0 0 0 0 0 0 0 0 0 0 0 0 0 0 0 0 0 0 0 0
0 0 0 0 0 0 0 0 0 0 0 0 0 0 0 0 0 0 0 0 0 0 0 0 0 0 0 0 0 0 0 0 0 0 0 0 0 0 0 0 0 0 0 0 0 0 0 0 0
0 0 0 0 0 0 0 0 0 0 0 0 0 0 0 0 0 0 0 0 0 0 0 0 0 0 0 0 0 0 0 0 0 0 0 0 0 0 0 0 0 0 0 0 0 0 0 0 0
0 0 0 0 0 0 0 0 0 0 0 0 0 0 0 0 0 0 0 0 0 0 0 0 0 0 0 0 0 0 0 0 0 0 0 0 0 0 0 0 0 0 0 0 0 0 0 0 0
Height
5862 5863 5864 5865 5866 5866 5865 5866 5866 5866 5866 5866 5866 5866 5866 5867 5868 5870 5868 5867 5867 5867 5867 5867 5867 5867 5867 5867 5867 5866 5866 5866 5865 5865 5865 5864 5864 5864 5864 5864 5864 5864 5864 5865 5865 5865 5866 5866 5866
5863 5864 5865 5866 5866 5866 5866 5866 5866 5866 5866 5866 5866 5866 5865 5865 5866 5866 5866 5866 5866 5866 5866 5866 5866 5865 5865 5865 5865 5864 5864 5864 5863 5863 5862 5862 5862 5862 5861 5861 5861 5861 5862 5862 5862 5862 5862 5863 5863
5864 5865 5866 5866 5866 5866 5867 5866 5867 5867 5866 5866 5866 5865 5865 5865 5864 5864 5865 5865 5864 5864 5864 5864 5864 5864 5863 5863 5863 5862 5862 5862 5861 5861 5860 5860 5860 5860 5859 5859 5859 5859 5859 5859 5859 5859 5859 5859 5860
5865 5866 5867 5867 5866 5866 5866 5866 5866 5866 5866 5866 5865 5865 5864 5864 5863 5863 5863 5863 5863 5863 5863 5862 5862 5862 5862 5861 5861 5861 5860 5860 5859 5859 5859 5858 5858 5857 5857 5857 5856 5856 5856 5856 5856 5856 5856 5856 5856
5866 5866 5867 5867 5866 5866 5866 5866 5866 5866 5865 5865 5865 5864 5863 5863 5862 5862 5862 5861 5861 5861 5861 5861 5861 5860 5860 5860 5859 5859 5858 5858 5857 5857 5856 5856 5855 5855 5855 5854 5854 5854 5853 5853 5853 5853 5852 5852 5852
5866 5866 5867 5867 5866 5866 5866 5866 5866 5865 5865 5864 5864 5863 5862 5862 5861 5861 5860 5860 5860 5860 5859 5859 5859 5858 5858 5858 5857 5857 5856 5856 5855 5855 5854 5854 5853 5852 5852 5851 5851 5851 5850 5850 5850 5849 5849 5849 5849
5866 5866 5866 5866 5866 5866 5866 5866 5865 5865 5864 5864 5863 5862 5861 5861 5860 5859 5859 5858 5858 5858 5857 5857 5857 5856 5856 5856 5855 5855 5854 5854 5853 5852 5852 5851 5850 5849 5849 5848 5848 5847 5847 5847 5846 5846 5846 5845 5845
5865 5866 5865 5865 5865 5865 5865 5865 5865 5864 5864 5863 5862 5861 5860 5859 5858 5857 5857 5856 5856 5855 5855 5855 5854 5854 5854 5853 5853 5852 5851 5851 5850 5849 5849 5848 5847 5846 5846 5845 5844 5844 5843 5843 5842 5842 5842 5841 5841
5864 5866 5864 5864 5864 5864 5864 5864 5863 5863 5863 5862 5861 5860 5859 5857 5856 5855 5854 5854 5853 5853 5852 5852 5852 5851 5851 5850 5849 5849 5848 5847 5846 5846 5845 5844 5844 5843 5842 5841 5841 5840 5839 5839 5838 5838 5837 5837 5836
5863 5863 5863 5863 5863 5863 5862 5862 5862 5861 5861 5860 5859 5858 5856 5855 5854 5853 5852 5851 5850 5850 5849 5848 5848 5847 5847 5846 5846 5845 5844 5843 5842 5842 5841 5840 5839 5839 5838 5837 5836 5835 5835 5834 5833 5833 5832 5831 5831
5861 5861 5861 5861 5861 5861 5860 5860 5859 5859 5859 5858 5857 5855 5854 5852 5851 5850 5849 5848 5847 5846 5845 5844 5844 5843 5843 5842 5841 5840 5839 5838 5837 5837 5836 5835 5834 5833 5832 5832 5831 5830 5829 5828 5828 5827 5826 5826 5825
5858 5858 5858 5858 5858 5858 5858 5857 5857 5857 5857 5855 5854 5853 5851 5849 5848 5847 5846 5844 5843 5842 5841 5840 5839 5838 5838 5837 5836 5835 5834 5833 5832 5831 5830 5829 5828 5827 5827 5826 5825 5824 5823 5822 5821 5821 5820 5819 5818
5855 5855 5855 5855 5855 5855 5855 5854 5854 5854 5854 5852 5850 5849 5847 5846 5844 5843 5842 5841 5839 5837 5836 5835 5834 5833 5832 5831 5830 5829 5828 5827 5826 5825 5824 5823 5822 5821 5820 5819 5818 5817 5816 5815 5814 5813 5812 5811 5810
5852 5852 5851 5852 5852 5852 5851 5850 5851 5851 5850 5848 5847 5845 5844 5842 5840 5839 5838 5836 5835 5833 5831 5830 5828 5827 5826 5825 5824 5823 5821 5820 5819 5818 5817 5816 5815 5814 5813 5812 5811 5809 5808 5807 5807 5806 5804 5803 5802
5848 5848 5848 5848 5848 5848 5848 5847 5847 5847 5846 5844 5842 5841 5839 5837 5836 5834 5832 5831 5829 5828 5826 5824 5823 5821 5820 5819 5817 5816 5815 5814 5812 5811 5810 5808 5807 5806 5805 5804 5802 5801 5800 5799 5798 5797 5796 5794 5792
5843 5844 5844 5844 5844 5844 5845 5843 5842 5843 5841 5839 5837 5836 5834 5832 5831 5829 5827 5825 5824 5822 5820 5819 5817 5815 5814 5812 5811 5810 5808 5807 5805 5803 5802 5800 5799 5797 5796 5795 5793 5791 5790 5790 5788 5787 5786 5784 5782
5839 5840 5839 5839 5839 5840 5840 5838 5837 5837 5836 5834 5833 5831 5829 5827 5826 5824 5822 5820 5818 5817 5815 5813 5811 5810 5808 5806 5805 5803 5801 5799 5797 5796 5794 5792 5790 5789 5787 5786 5784 5781 5780 5779 5778 5776 5775 5773 5771
5835 5835 5834 5834 5834 5835 5834 5834 5833 5832 5831 5829 5828 5826 5824 5822 5821 5819 5817 5815 5813 5811 5809 5808 5806 5804 5802 5800 5798 5796 5794 5792 5790 5787 5785 5783 5781 5779 5778 5776 5774 5772 5770 5768 5766 5764 5763 5761 5758
5830 5830 5829 5829 5829 5830 5829 5829 5828 5827 5826 5824 5822 5821 5819 5818 5816 5814 5812 5809 5807 5805 5803 5802 5800 5798 5796 5794 5791 5789 5787 5785 5782 5779 5777 5774 5772 5770 5768 5766 5764 5761 5759 5757 5754 5752 5750 5747 5744
5825 5825 5825 5824 5824 5825 5825 5824 5823 5822 5821 5819 5817 5816 5814 5813 5811 5809 5806 5804 5802 5800 5798 5796 5794 5792 5789 5787 5785 5782 5780 5777 5774 5771 5768 5766 5763 5760 5758 5755 5753 5750 5747 5745 5742 5738 5735 5733 5730
5820 5821 5820 5820 5819 5819 5820 5820 5819 5817 5816 5814 5813 5811 5809 5808 5806 5804 5801 5799 5797 5795 5792 5790 5787 5785 5783 5780 5778 5775 5773 5770 5766 5763 5760 5757 5754 5751 5748 5745 5741 5738 5735 5732 5729 5725 5721 5719 5715
5816 5816 5816 5815 5815 5815 5815 5815 5814 5813 5811 5810 5808 5806 5805 5803 5801 5798 5796 5793 5791 5789 5786 5784 5781 5778 5776 5773 5770 5767 5764 5761 5758 5755 5752 5748 5744 5741 5737 5734 5730 5726 5723 5719 5715 5711 5707 5703 5700
5812 5812 5812 5811 5811 5811 5810 5810 5810 5808 5807 5805 5803 5801 5799 5798 5795 5793 5790 5788 5785 5783 5780 5777 5775 5772 5769 5765 5762 5759 5756 5753 5749 5746 5742 5738 5734 5730 5726 5722 5718 5714 5710 5706 5702 5697 5692 5688 5684
5808 5808 5808 5807 5807 5808 5806 5806 5805 5804 5802 5800 5798 5796 5794 5792 5790 5787 5784 5782 5779 5777 5774 5771 5768 5764 5761 5758 5754 5751 5747 5744 5740 5736 5733 5728 5724 5720 5715 5710 5706 5701 5696 5692 5687 5681 5677 5672 5667
5804 5805 5804 5804 5803 5803 5802 5801 5801 5799 5797 5795 5793 5791 5789 5786 5784 5781 5778 5775 5772 5769 5767 5764 5760 5757 5753 5750 5746 5742 5738 5734 5730 5726 5722 5718 5713 5708 5702 5697 5692 5687 5681 5676 5670 5665 5660 5654 5649
5800 5800 5800 5800 5799 5799 5797 5796 5796 5793 5791 5789 5787 5785 5783 5780 5777 5774 5771 5768 5765 5762 5759 5756 5752 5748 5745 5741 5737 5733 5729 5724 5720 5715 5710 5705 5700 5695 5689 5683 5677 5671 5665 5659 5653 5647 5641 5635 5630
5795 5795 5795 5795 5794 5794 5793 5792 5790 5787 5785 5783 5781 5779 5776 5773 5771 5767 5764 5761 5758 5754 5751 5747 5743 5739 5735 5731 5727 5722 5718 5713 5708 5702 5697 5691 5685 5679 5673 5667 5660 5653 5647 5640 5633 5627 5621 5615 5609
5791 5791 5790 5789 5788 5788 5788 5787 5785 5782 5779 5777 5774 5772 5769 5766 5763 5760 5756 5753 5750 5746 5742 5738 5734 5730 5725 5721 5716 5711 5706 5700 5694 5689 5682 5676 5669 5662 5656 5649 5641 5634 5626 5618 5611 5605 5599 5592 5587
5786 5786 5784 5783 5783 5782 5781 5784 5779 5776 5772 5770 5768 5765 5762 5759 5755 5752 5748 5745 5741 5737 5733 5728 5724 5719 5714 5709 5704 5698 5692 5686 5680 5673 5666 5659 5652 5644 5636 5629 5621 5613 5604 5596 5588 5582 5575 5569 5563
5780 5780 5779 5778 5777 5775 5774 5779 5772 5768 5765 5762 5760 5757 5754 5750 5747 5743 5740 5736 5732 5727 5723 5718 5713 5708 5703 5697 5691 5685 5678 5671 5664 5656 5648 5640 5632 5624 5615 5606 5598 5589 5580 5572 5564 5557 5551 5544 5540
Wind_Speed
4 5 5 4 4 3 2 2 1 2 3 4 4 4 4 4 4 4 5 5 6 7 7 8 8 9 9 10 10 11 11 12 12 12 12 12 12 12 12 12 12 13 13 14 14 14 15 15 15
5 5 5 4 4 3 2 1 0 2 3 4 4 4 4 5 5 5 5 6 7 8 8 8 9 9 10 10 10 10 11 11 11 10 10 10 11 11 11 11 12 12 13 13 14 14 14 15 15
5 5 5 4 3 2 2 2 1 3 3 4 4 4 5 5 6 6 6 7 8 8 8 9 9 9 10 10 10 10 10 10 9 9 9 10 10 10 11 11 12 12 12 13 13 14 14 15 15
4 4 3 3 2 2 2 2 2 3 4 4 4 5 6 6 6 7 7 7 8 8 8 9 9 9 10 10 10 10 9 9 9 9 9 10 10 10 11 11 12 12 13 13 13 14 15 15 16
2 3 3 2 2 1 1 1 1 2 4 4 5 5 6 6 6 7 8 8 8 8 9 9 9 10 10 10 10 10 10 10 10 10 10 10 10 11 11 12 12 12 13 13 13 14 14 15 16
2 1 2 1 0 1 1 2 3 3 4 5 5 6 7 6 7 8 9 9 9 9 9 10 10 10 10 10 10 10 10 10 10 11 11 11 11 12 12 12 12 13 13 13 14 14 15 15 16
3 2 2 1 1 2 2 3 4 5 5 6 6 6 7 7 8 9 9 10 10 10 10 11 11 12 12 12 12 12 12 12 12 12 12 12 13 13 13 13 14 14 14 14 15 15 16 16 17
5 4 4 3 3 3 4 5 6 6 7 6 7 7 8 9 9 10 11 12 12 12 12 12 13 14 14 14 14 14 14 14 14 14 14 14 15 15 15 15 15 16 16 16 17 17 17 18 18
7 7 6 6 5 6 6 6 7 8 8 8 8 9 10 11 12 12 13 13 14 14 14 14 15 16 16 16 17 17 17 17 17 17 17 17 17 17 18 18 18 18 18 19 19 19 20 20 21
10 10 9 8 8 8 9 9 9 9 10 9 10 11 12 13 14 14 15 15 16 16 17 17 18 18 19 19 20 20 20 20 20 21 21 21 21 21 21 21 22 22 22 22 22 23 23 24 24
13 13 12 11 10 10 11 11 11 11 11 11 12 13 14 15 15 16 16 17 18 19 20 20 20 21 21 22 22 23 23 24 24 24 24 24 24 25 25 25 25 26 26 26 26 27 27 28 28
15 16 15 14 13 13 13 14 14 13 12 13 14 15 16 17 17 17 18 19 20 21 22 22 23 23 24 24 25 26 27 27 27 27 27 28 28 28 28 29 29 30 30 30 31 31 31 32 32
18 18 18 17 16 16 16 17 16 15 14 15 16 17 18 19 20 20 20 20 21 23 24 24 25 26 26 27 28 29 30 30 30 30 31 31 32 32 32 32 33 33 34 34 35 35 35 36 36
20 20 20 20 19 18 19 20 18 17 17 18 19 19 20 21 22 22 22 22 23 24 25 26 27 27 28 29 30 31 31 32 32 33 33 34 34 35 35 36 36 37 38 38 38 39 39 40 41
21 21 22 22 21 20 21 22 20 19 19 21 21 22 22 23 24 24 24 24 24 25 26 27 28 29 30 31 32 32 33 33 34 35 36 36 37 38 38 39 40 41 41 42 42 43 43 44 45
23 23 24 24 23 22 22 24 23 20 21 23 23 24 24 25 25 25 25 25 25 25 26 27 27 29 30 31 32 33 34 34 35 36 37 38 39 40 41 41 42 44 45 45 45 46 47 48 49
24 24 25 26 25 24 24 24 25 23 23 24 25 25 26 26 26 26 26 26 26 26 26 27 27 28 30 30 31 32 34 35 36 37 38 39 40 41 42 43 44 46 47 48 48 49 50 51 52
24 24 25 26 26 25 24 24 25 25 24 25 25 26 26 26 26 25 26 26 26 26 27 27 27 28 29 31 31 32 34 35 36 38 39 40 41 42 43 44 45 47 49 50 51 52 53 54 55
24 24 25 26 26 25 24 24 24 24 25 25 25 25 25 25 25 25 26 26 27 27 27 27 28 29 30 31 31 32 33 35 37 38 40 41 42 43 45 45 47 48 50 51 53 54 55 56 58
22 23 24 25 25 23 23 23 23 23 23 24 24 24 25 25 25 25 26 27 27 27 28 28 29 29 30 31 31 32 33 35 37 39 40 41 43 44 45 47 48 50 51 52 54 56 57 58 59
21 21 21 22 23 22 22 20 20 21 22 22 24 24 24 25 25 26 26 27 27 28 28 29 29 30 30 31 32 33 34 36 37 39 40 42 43 45 46 48 49 51 52 53 55 57 58 60 61
20 20 20 20 21 20 20 18 18 19 20 22 23 24 24 25 25 26 26 27 27 28 28 29 31 31 32 33 34 36 36 37 39 40 41 43 44 45 46 48 50 51 53 55 56 58 60 62 63
19 19 19 19 19 18 18 19 18 19 20 21 22 23 24 24 25 26 27 28 28 29 30 31 32 33 34 35 36 37 38 38 39 40 41 43 44 46 48 50 51 53 55 56 58 60 62 63 65
18 18 18 17 18 17 18 19 19 19 20 21 22 23 24 25 26 27 28 29 30 31 32 33 34 34 35 36 37 37 38 39 40 41 43 45 46 48 50 52 54 56 57 59 61 62 64 65 67
18 18 18 18 17 17 18 20 20 20 21 22 23 24 25 26 28 29 29 31 32 33 34 34 35 35 36 37 38 38 39 40 42 44 45 47 49 51 53 56 57 59 61 63 64 66 67 68 69
19 19 19 20 19 18 19 20 21 22 23 24 25 26 27 28 29 30 31 33 34 34 35 35 36 36 37 38 39 40 42 44 45 47 49 51 53 55 57 60 61 63 65 67 68 70 70 71 72
20 20 21 22 22 21 21 21 23 24 25 26 28 29 29 30 30 32 33 34 35 35 36 37 37 39 40 41 42 44 46 48 50 52 54 57 59 61 63 64 66 68 70 71 73 74 74 74 75
22 22 22 23 25 24 23 22 24 25 27 29 30 30 31 32 32 33 34 35 37 38 38 39 40 41 42 44 46 48 50 53 55 57 60 62 64 66 68 70 72 74 75 76 77 77 76 77 77
24 24 24 26 27 28 26 23 25 28 30 31 32 32 33 34 34 35 37 38 39 40 41 42 43 44 46 48 50 52 55 57 60 62 65 67 69 72 74 75 77 78 79 79 79 79 78 78 77
25 25 26 28 29 30 29 26 28 30 32 33 33 34 34 36 36 38 39 40 41 42 44 45 46 48 50 52 54 57 60 62 65 68 70 73 75 77 78 80 80 80 80 80 79 79 78 78 77
Wind_Direction
90 85 85 86 96 101 105 124 172 203 218 220 219 218 221 234 241 245 247 250 256 263 268 270 273 274 275 275 275 275 275 275 276 276 276 275 275 275 275 274 274 275 274 274 273 271 269 267 266
92 90 88 90 90 85 75 51 344 260 249 244 239 236 234 242 249 253 255 258 263 268 271 274 276 276 277 277 278 278 278 278 278 279 279 279 279 278 278 278 278 278 277 277 276 274 273 271 269
96 94 94 96 93 76 62 37 342 298 275 264 259 256 255 256 259 262 263 265 267 270 272 275 276 278 279 279 280 281 281 281 282 283 284 284 285 284 283 283 282 281 280 279 277 276 276 275 274
99 98 98 102 105 87 62 29 332 295 285 280 276 274 273 269 269 269 269 270 270 270 273 275 277 277 279 281 282 283 282 283 284 286 287 287 288 287 286 286 285 284 282 281 280 278 278 277 276
115 108 103 110 113 89 67 27 325 297 291 290 287 282 282 279 275 273 273 274 273 272 273 274 275 276 278 279 280 280 281 283 285 286 287 289 289 289 288 287 286 285 284 283 282 281 280 279 279
168 143 128 118 103 27 358 335 327 321 308 304 298 292 292 294 286 281 279 278 277 275 274 275 275 275 276 277 278 279 280 281 283 284 286 288 288 288 288 287 287 286 284 283 283 282 282 282 281
223 215 200 225 269 293 314 315 314 314 312 311 307 299 299 301 294 286 282 280 278 278 276 276 275 275 276 276 278 279 280 281 282 282 283 284 285 286 286 286 285 285 284 283 282 282 282 282 282
236 237 236 243 261 279 294 302 307 309 310 310 307 302 299 299 294 288 284 283 281 280 278 275 274 275 276 276 277 277 278 279 280 280 280 281 281 282 282 282 282 282 281 281 281 281 281 282 282
246 248 251 256 267 282 290 296 301 306 308 309 306 301 299 296 294 290 286 284 283 281 278 275 274 275 275 275 276 276 277 277 277 278 278 278 279 279 279 279 279 279 279 279 279 280 280 281 281
251 252 256 262 269 279 286 291 298 303 306 307 303 300 299 297 295 292 289 286 283 281 279 277 276 276 276 275 275 275 275 276 276 276 276 276 276 277 277 277 278 278 278 278 278 279 279 280 280
253 256 260 263 268 275 282 288 293 297 302 304 301 298 297 295 293 291 288 285 283 281 280 279 278 277 276 275 275 275 274 274 274 274 275 275 275 275 276 276 277 277 277 277 278 278 279 279 280
255 259 262 266 269 273 279 284 289 292 298 297 295 294 293 293 292 292 289 285 283 281 280 280 279 278 276 275 274 274 273 273 274 274 274 274 275 275 275 276 276 276 277 277 277 278 279 279 280
257 260 263 266 271 275 280 283 286 291 295 293 293 293 292 293 293 293 290 287 284 282 282 281 280 279 278 276 275 274 274 274 275 274 274 274 275 275 275 275 276 276 277 277 278 278 279 279 280
258 261 264 267 271 275 279 282 285 290 291 291 292 293 294 293 293 293 291 288 285 283 282 281 280 279 278 277 276 276 276 276 276 275 275 275 275 275 275 276 276 276 277 278 278 279 279 280 280
260 262 265 267 270 273 277 281 284 289 290 291 292 293 294 294 293 292 291 289 287 284 282 281 280 280 279 278 278 277 277 278 278 277 277 276 276 276 276 277 277 277 278 278 279 279 280 280 281
262 264 266 269 271 273 276 281 283 288 289 290 292 292 293 293 293 292 291 290 288 286 284 283 282 281 281 280 280 280 280 280 279 279 278 278 278 278 278 278 278 278 279 279 279 280 280 280 281
263 265 267 270 271 273 276 280 285 288 288 290 291 291 292 292 292 292 291 290 289 288 286 285 284 284 284 283 283 283 282 282 281 281 280 280 279 279 279 279 279 280 280 281 281 281 281 281 282
264 266 268 270 272 274 275 278 283 285 287 287 288 289 290 291 292 292 292 292 291 290 289 288 287 287 286 286 285 285 284 284 284 283 282 282 281 281 281 281 281 281 282 282 282 281 282 282 282
266 267 269 271 273 274 275 276 278 281 283 284 285 287 288 290 292 292 293 293 292 292 291 291 290 289 288 288 288 287 287 286 286 285 285 285 284 284 284 284 283 283 283 283 283 283 283 282 282
268 269 271 273 275 274 274 275 277 278 280 282 284 286 288 290 292 293 292 292 292 292 293 293 292 292 291 291 290 289 289 288 288 288 288 287 287 287 287 286 286 285 285 284 284 284 284 283 283
269 271 273 275 276 276 276 275 276 277 279 281 283 286 289 291 293 292 291 292 293 294 295 295 295 294 294 293 293 292 291 290 289 289 289 288 288 288 288 288 287 287 287 286 285 285 285 284 284
271 273 274 276 277 278 279 278 277 278 280 282 284 287 289 291 291 290 291 293 294 295 295 295 296 296 296 295 295 294 293 292 291 291 290 290 290 289 289 288 288 287 287 287 286 286 285 285 285
272 274 275 277 278 280 281 282 281 283 283 284 286 287 289 290 289 290 292 293 294 295 295 296 296 296 296 296 295 294 293 293 292 291 291 290 290 290 290 289 289 289 288 288 287 286 286 286 285
271 273 275 277 280 282 283 285 287 288 287 286 288 288 289 289 290 291 292 293 294 295 295 296 296 296 296 296 296 295 294 294 293 293 293 292 292 292 291 291 291 291 290 289 288 287 287 286 285
270 273 275 277 279 284 286 287 290 290 288 288 288 289 290 290 291 292 293 293 294 295 296 297 297 297 297 297 297 296 295 295 295 294 294 294 294 293 293 293 292 291 291 290 289 288 287 286 285
270 273 277 280 282 285 286 289 291 290 289 289 289 290 291 292 292 292 292 293 295 297 299 300 300 299 299 299 298 297 297 296 296 296 296 295 295 294 294 294 293 292 291 290 290 289 287 286 285
270 274 277 281 283 286 288 291 290 289 289 290 291 292 293 293 293 292 293 295 297 299 301 301 301 301 301 300 300 299 299 298 298 297 297 297 296 296 295 295 294 293 292 291 290 289 287 285 284
270 274 278 281 285 287 288 290 289 288 288 290 291 293 294 294 293 293 295 297 299 301 302 303 302 302 301 301 300 300 299 299 299 298 298 298 298 297 296 296 295 295 293 292 290 289 287 285 284
272 275 278 281 285 289 290 292 291 290 289 290 292 294 295 295 295 296 298 299 301 303 303 304 303 303 302 302 302 301 301 301 300 300 299 299 298 297 297 296 296 295 294 292 290 289 287 285 283
272 276 279 283 286 288 291 295 293 291 290 291 293 295 295 295 297 298 300 301 302 304 304 304 304 304 304 303 303 302 302 302 301 301 300 300 299 299 298 297 296 295 294 292 290 289 287 285 283